• In Belarus
  • List of Countries
  • For 7 days
  • Water Temperature
  • Satellite Maps
  • Weather Map
  • Weather Widgets
  • user-avatar
    Login

    Hourly Weather Kulikovskiy

    Today, 20 July, Friday

    Time Temperature Precipitation Wind Pressure Humidity
    00:00 +17°C° 0 mm 0 mps 731 mmHg 95%
    01:00 +17°C° 0 mm 0 mps 731 mmHg 95%
    02:00 +16°C° 0 mm 0 mps 731 mmHg 95%
    03:00 +17°C° 0 mm 0 mps 731 mmHg 95%
    04:00 +17°C° 0 mm 0 mps 732 mmHg 95%
    05:00 +17°C° 0 mm 0 mps 732 mmHg 95%
    06:00 +21°C° 0 mm 1 mps 732 mmHg 92%
    07:00 +22°C° 0 mm 1 mps 732 mmHg 88%
    08:00 +23°C° 0 mm 1 mps 732 mmHg 85%
    09:00 +24°C° 0.1 mm 1 mps 732 mmHg 81%
    10:00 +25°C° 0.1 mm 2 mps 732 mmHg 77%
    11:00 +26°C° 0.1 mm 2 mps 732 mmHg 72%
    12:00 +26°C° 0.2 mm 2 mps 732 mmHg 71%
    13:00 +27°C° 0.2 mm 2 mps 732 mmHg 70%
    14:00 +27°C° 0.2 mm 2 mps 732 mmHg 69%
    15:00 +27°C° 0.1 mm 2 mps 732 mmHg 71%
    16:00 +27°C° 0.1 mm 2 mps 732 mmHg 73%
    17:00 +27°C° 0.1 mm 2 mps 733 mmHg 74%
    18:00 +25°C° 0 mm 1 mps 733 mmHg 78%
    19:00 +24°C° 0 mm 1 mps 733 mmHg 82%
    20:00 +22°C° 0 mm 1 mps 733 mmHg 86%
    21:00 +22°C° 0.2 mm 1 mps 733 mmHg 87%
    22:00 +21°C° 0.2 mm 1 mps 733 mmHg 88%
    23:00 +21°C° 0.2 mm 1 mps 733 mmHg 90%

    Tomorrow, 21 July, Saturday

    Time Temperature Precipitation Wind Pressure Humidity
    00:00 +20°C° 0.1 mm 1 mps 733 mmHg 90%
    01:00 +18°C° 0.1 mm 0 mps 733 mmHg 90%
    02:00 +18°C° 0.1 mm 0 mps 733 mmHg 90%
    03:00 +18°C° 0.1 mm 0 mps 733 mmHg 90%
    04:00 +18°C° 0.1 mm 0 mps 733 mmHg 90%
    05:00 +19°C° 0.1 mm 0 mps 733 mmHg 90%
    06:00 +20°C° 0.3 mm 0 mps 734 mmHg 87%
    07:00 +21°C° 0.3 mm 0 mps 734 mmHg 84%
    08:00 +24°C° 0.3 mm 1 mps 734 mmHg 81%
    09:00 +25°C° 0.5 mm 1 mps 734 mmHg 76%
    10:00 +26°C° 0.5 mm 1 mps 734 mmHg 72%
    11:00 +27°C° 0.5 mm 1 mps 734 mmHg 68%
    12:00 +27°C° 0.7 mm 1 mps 734 mmHg 67%
    13:00 +27°C° 0.7 mm 1 mps 734 mmHg 66%
    14:00 +27°C° 0.7 mm 1 mps 734 mmHg 66%
    15:00 +27°C° 0.3 mm 1 mps 734 mmHg 67%
    16:00 +27°C° 0.3 mm 1 mps 734 mmHg 69%
    17:00 +27°C° 0.3 mm 1 mps 733 mmHg 71%
    18:00 +25°C° 0.1 mm 1 mps 734 mmHg 77%
    19:00 +24°C° 0.1 mm 1 mps 734 mmHg 82%
    20:00 +22°C° 0.1 mm 1 mps 734 mmHg 87%
    21:00 +22°C° 0 mm 1 mps 734 mmHg 89%
    22:00 +21°C° 0 mm 1 mps 734 mmHg 90%
    23:00 +21°C° 0 mm 1 mps 734 mmHg 91%

    Day after tomorrow, 22 July, Sunday

    Time Temperature Precipitation Wind Pressure Humidity
    00:00 +21°C° 0 mm 1 mps 734 mmHg 91%
    01:00 +20°C° 0 mm 1 mps 733 mmHg 91%
    02:00 +18°C° 0 mm 0 mps 733 mmHg 92%
    03:00 +20°C° 0 mm 1 mps 734 mmHg 92%
    04:00 +20°C° 0 mm 1 mps 734 mmHg 92%
    05:00 +21°C° 0 mm 1 mps 734 mmHg 92%
    06:00 +22°C° 0 mm 1 mps 734 mmHg 88%
    07:00 +24°C° 0 mm 1 mps 734 mmHg 83%
    08:00 +25°C° 0 mm 1 mps 734 mmHg 79%
    09:00 +26°C° 0.6 mm 2 mps 734 mmHg 74%
    10:00 +27°C° 0.6 mm 2 mps 734 mmHg 70%
    11:00 +28°C° 0.6 mm 2 mps 734 mmHg 66%
    12:00 +28°C° 0.7 mm 2 mps 734 mmHg 66%
    13:00 +28°C° 0.7 mm 2 mps 734 mmHg 67%
    14:00 +28°C° 0.7 mm 2 mps 734 mmHg 67%
    15:00 +28°C° 0.7 mm 3 mps 734 mmHg 72%
    16:00 +27°C° 0.7 mm 3 mps 734 mmHg 76%
    17:00 +26°C° 0.7 mm 3 mps 733 mmHg 81%
    18:00 +25°C° 0.7 mm 3 mps 733 mmHg 84%
    19:00 +24°C° 0.7 mm 3 mps 733 mmHg 88%
    20:00 +22°C° 0.7 mm 3 mps 733 mmHg 92%
    21:00 +21°C° 1.4 mm 3 mps 733 mmHg 92%
    22:00 +21°C° 1.4 mm 3 mps 734 mmHg 93%
    23:00 +20°C° 1.4 mm 3 mps 734 mmHg 94%

    23 July, Monday

    Time Temperature Precipitation Wind Pressure Humidity
    00:00 +20°C° 0.4 mm 3 mps 734 mmHg 95%
    01:00 +20°C° 0.4 mm 3 mps 734 mmHg 96%
    02:00 +20°C° 0.4 mm 4 mps 733 mmHg 96%
    03:00 +20°C° 0.9 mm 4 mps 733 mmHg 96%
    04:00 +20°C° 0.9 mm 4 mps 734 mmHg 96%
    05:00 +20°C° 0.9 mm 4 mps 734 mmHg 96%
    06:00 +20°C° 0.6 mm 4 mps 734 mmHg 95%
    07:00 +20°C° 0.6 mm 4 mps 734 mmHg 95%
    08:00 +20°C° 0.6 mm 4 mps 734 mmHg 94%
    09:00 +21°C° 0.2 mm 4 mps 734 mmHg 93%
    10:00 +21°C° 0.2 mm 4 mps 734 mmHg 92%
    11:00 +21°C° 0.2 mm 4 mps 734 mmHg 91%
    12:00 +22°C° 0.4 mm 4 mps 734 mmHg 90%
    13:00 +22°C° 0.4 mm 4 mps 734 mmHg 89%
    14:00 +22°C° 0.4 mm 4 mps 734 mmHg 87%
    15:00 +23°C° 0.3 mm 4 mps 734 mmHg 87%
    16:00 +24°C° 0.3 mm 3 mps 734 mmHg 86%
    17:00 +24°C° 0.3 mm 3 mps 734 mmHg 85%
    18:00 +22°C° 0.2 mm 3 mps 734 mmHg 88%
    19:00 +21°C° 0.2 mm 2 mps 734 mmHg 91%
    20:00 +20°C° 0.2 mm 2 mps 734 mmHg 94%
    21:00 +20°C° 0 mm 2 mps 735 mmHg 94%
    22:00 +19°C° 0 mm 2 mps 735 mmHg 95%
    23:00 +19°C° 0 mm 2 mps 735 mmHg 95%

    24 July, Tuesday

    Time Temperature Precipitation Wind Pressure Humidity
    00:00 +19°C° 0 mm 2 mps 735 mmHg 95%
    01:00 +18°C° 0 mm 2 mps 735 mmHg 95%
    02:00 +18°C° 0 mm 2 mps 735 mmHg 95%
    03:00 +18°C° 0 mm 2 mps 735 mmHg 95%
    04:00 +18°C° 0 mm 2 mps 735 mmHg 95%
    05:00 +18°C° 0 mm 2 mps 735 mmHg 95%
    06:00 +20°C° 0 mm 3 mps 736 mmHg 91%
    07:00 +22°C° 0 mm 3 mps 736 mmHg 87%
    08:00 +23°C° 0 mm 4 mps 736 mmHg 82%
    09:00 +25°C° 0.2 mm 4 mps 736 mmHg 78%
    10:00 +26°C° 0.2 mm 4 mps 736 mmHg 73%
    11:00 +27°C° 0.2 mm 4 mps 736 mmHg 69%
    12:00 +27°C° 0.7 mm 4 mps 736 mmHg 69%
    13:00 +27°C° 0.7 mm 4 mps 736 mmHg 69%
    14:00 +28°C° 0.7 mm 5 mps 736 mmHg 69%
    15:00 +28°C° 0.7 mm 4 mps 736 mmHg 72%
    16:00 +27°C° 0.7 mm 3 mps 736 mmHg 75%
    17:00 +27°C° 0.7 mm 3 mps 737 mmHg 78%
    18:00 +26°C° 0.2 mm 3 mps 737 mmHg 81%
    19:00 +24°C° 0.2 mm 2 mps 737 mmHg 84%
    20:00 +23°C° 0.2 mm 2 mps 737 mmHg 87%
    21:00 +21°C° 0 mm 2 mps 737 mmHg 88%
    22:00 +21°C° 0 mm 2 mps 737 mmHg 89%
    23:00 +20°C° 0 mm 2 mps 737 mmHg 90%

    25 July, Wednesday

    Time Temperature Precipitation Wind Pressure Humidity
    00:00 +20°C° 0 mm 2 mps 738 mmHg 91%
    01:00 +20°C° 0 mm 2 mps 738 mmHg 92%
    02:00 +19°C° 0 mm 3 mps 738 mmHg 92%
    03:00 +19°C° 0 mm 3 mps 738 mmHg 92%
    04:00 +19°C° 0 mm 2 mps 738 mmHg 92%
    05:00 +19°C° 0 mm 2 mps 739 mmHg 92%
    06:00 +21°C° 0.5 mm 3 mps 739 mmHg 87%
    07:00 +24°C° 0.5 mm 3 mps 739 mmHg 82%
    08:00 +26°C° 0.5 mm 3 mps 739 mmHg 77%
    09:00 +26°C° 0.6 mm 4 mps 739 mmHg 74%
    10:00 +27°C° 0.6 mm 4 mps 739 mmHg 70%
    11:00 +28°C° 0.6 mm 4 mps 739 mmHg 66%
    12:00 +28°C° 0.7 mm 5 mps 739 mmHg 68%
    13:00 +27°C° 0.7 mm 5 mps 739 mmHg 70%
    14:00 +27°C° 0.7 mm 5 mps 739 mmHg 72%
    15:00 +26°C° 0.4 mm 5 mps 739 mmHg 75%
    16:00 +26°C° 0.4 mm 5 mps 740 mmHg 78%
    17:00 +25°C° 0.4 mm 5 mps 740 mmHg 81%
    18:00 +22°C° 0.1 mm 5 mps 740 mmHg 82%
    19:00 +21°C° 0.1 mm 5 mps 740 mmHg 84%
    20:00 +19°C° 0.1 mm 5 mps 740 mmHg 86%
    21:00 +19°C° 0 mm 4 mps 740 mmHg 87%
    22:00 +18°C° 0 mm 4 mps 740 mmHg 88%
    23:00 +17°C° 0 mm 4 mps 740 mmHg 89%
    Show more